• MPC Preparation (Info)

  • MPEC 2023-J97 : 2023 HV8

    The following Minor Planet Electronic Circular may be linked-to from your own Web pages, but must not otherwise be redistributed electronically.

    A form allowing access to any MPEC is at the bottom of this page.


    Read MPEC 2023-J96 Read MPEC 2023-J98


    M.P.E.C. 2023-J97                                  Issued 2023 May 11, 10:33 UT
    
         The Minor Planet Electronic Circulars contain information on unusual
             minor planets, routine data on comets and natural satellites,
             and occasional editorial announcements.  They are published
        on behalf of Division F of the International Astronomical Union by the
              Minor Planet Center, Smithsonian Astrophysical Observatory,
                              Cambridge, MA 02138, U.S.A.
    			  
                 Prepared using the Tamkin Foundation Computer Network
    
                                  MPC@CFA.HARVARD.EDU
                URL https://www.minorplanetcenter.net/    ISSN 1523-6714
    
                                    2023 HV8                                 
    
    
    Observations:
         K23H08V  C2023 04 17.42918 13 55 41.55 -16 59 35.1          22.5 GVEJ097V00
         K23H08V  C2023 04 17.43415 13 55 41.10 -16 59 39.2          22.5 GVEJ097V00
         K23H08V  C2023 04 21.33672 13 50 10.61 -17 52 53.9                VEJ097G96
         K23H08V  C2023 04 21.35116 13 50 09.14 -17 53 06.1          20.9 GVEJ097G96
         K23H08V* C2023 04 22.40386213 48 29.909-18 08 22.42         21.31wUEJ097F52
         K23H08V  C2023 04 22.42557413 48 27.582-18 08 41.52         21.22wUEJ097F52
         K23H08V  C2023 04 22.43643813 48 26.411-18 08 51.33         21.30wUEJ097F52
         K23H08V  C2023 05 10.31137713 08 14.650-23 53 00.70         21.31wXEJ097F52
         K23H08V  C2023 05 10.33037713 08 11.034-23 53 29.25         21.34wXEJ097F52
         K23H08V  C2023 05 10.33988213 08 09.223-23 53 43.34         21.22wXEJ097F52
         K23H08V  C2023 05 10.40112713 07 57.575-23 55 12.91         20.43GVEJ097F51
         K23H08V  C2023 05 10.40176513 07 57.448-23 55 14.08               VEJ097F51
         K23H08V  C2023 05 10.40368813 07 57.089-23 55 16.93         21.44GVEJ097F51
         K23H08V |C2023 05 11.15973 13 05 43.56 -24 13 38.9          20.9 GVEJ097807
         K23H08V |C2023 05 11.16712 13 05 42.14 -24 13 49.9          21.0 GVEJ097807
         K23H08V |C2023 05 11.17452 13 05 40.71 -24 14 00.7          21.0 GVEJ097807
    
    Observer details:
    807 Cerro Tololo Observatory, La Serena.  Observers T. Linder, R. Holmes, L.
        Horn.  1.00-m f/10.0 astrograph + CCD.
    F51 Pan-STARRS 1, Haleakala.  Observers J. Bulger, K. Chambers, T. Lowe, A.
        Schultz, I. Smith.  Measurers S. Chastel, J. Fairlamb, M. Huber, Y.
        Ramanjooloo, R. Wainscoat, R. Weryk.  1.8-m Ritchey-Chretien + CCD.
    F52 Pan-STARRS 2, Haleakala.  Observers J. Bulger, T. Lowe, A. Schultz, I.
        Smith.  Measurers K. Chambers, S. Chastel, T. de Boer, J. Fairlamb, H.
        Gao, M. Huber, C.-C. Lin, E. Magnier, Y. Ramanjooloo, R. Wainscoat, R.
        Weryk.  1.8-m Ritchey-Chretien + CCD.
    G96 Mt. Lemmon Survey.  Observer G. J. Leonard.  Measurers B. Gray, D. Rankin,
        F. C. Shelly.  1.5-m reflector + 10K CCD.
    V00 Kitt Peak-Bok.  Observer R. A. Mastaler.  Measurers B. Gray, D. Rankin, F.
        C. Shelly.  2.25-m reflector + mosaic CCD.
    
    Orbital elements:
    2023 HV8                                                 Earth MOID = 0.0895 AU
    Epoch 2023 Feb. 25.0 TT = JDT 2460000.5                 Veres                   
    M 316.40681              (2000.0)            P               Q                  
    n   0.32260112     Peri.  274.47415     +0.34653462     +0.93757608             
    a   2.1055172      Node    15.89779     -0.81243621     +0.31565818             
    e   0.5367946      Incl.    6.16315     -0.46889356     +0.14598290             
    P   3.06           H   22.80          G   0.15           U   8                  
    Residuals in seconds of arc
    230417 V00  0.2+  0.2+    230422 F52  0.0   0.1-    230510 F51  0.1+  0.1+
    230417 V00  0.3-  0.1-    230510 F52  0.0   0.2+    230511 807  0.0   0.1-
    230421 G96  0.1-  0.2-    230510 F52  0.0   0.1+    230511 807  0.0   0.1-
    230421 G96  0.2-  0.1-    230510 F52  0.1-  0.1+    230511 807  0.0   0.0
    230422 F52  0.0   0.1-    230510 F51  0.1+  0.4+
    230422 F52  0.1+  0.1+    230510 F51  0.0   0.2+
    
    Ephemeris:
    2023 HV8                 a,e,i = 2.11, 0.54, 6                   q = 0.9753
    Date    TT    R. A. (2000) Decl.     Delta      r    Elong.  Phase     V
    2023 04 11    14 02 38.3 -15 42 14   0.4473  1.4402   166.2     9.5    22.5
    ...
    2023 04 26    13 42 14.2 -19 03 54   0.3257  1.3286   170.9     6.9    21.5
    ...
    2023 05 04    13 25 04.2 -21 30 31   0.2747  1.2708   160.9    15.1    21.4
    ...
    2023 05 10    13 09 08.3 -23 44 57   0.2421  1.2288   152.1    22.6    21.2
    2023 05 11    13 06 12.9 -24 09 41   0.2371  1.2219   150.6    23.9    21.2
    2023 05 12    13 03 12.8 -24 35 08   0.2323  1.2151   149.1    25.3    21.2
    ...
    2023 05 18    12 43 27.6 -27 23 52   0.2053  1.1753   139.6    33.9    21.1
    ...
    2023 05 26    12 11 45.9 -31 58 11   0.1748  1.1256   126.5    46.4    21.0
    ...
    2023 06 10    10 40 29.5 -43 14 51   0.1312  1.0467   100.4    72.5    21.0
    
    M. P. C. Staff               (C) Copyright 2023 MPC           M.P.E.C. 2023-J97
    


    Read MPEC 2023-J96 Read MPEC 2023-J98


    MPEC number:

    Enter an MPEC number in one of the following forms:

    • 1997-B01 (the full form)
    • J97B01 (the packed version of the full form)
    • B01 (the abbreviated form)